500  
ASUS42 KCAE 260410  
RWRCAE  
REGIONAL WEATHER ROUNDUP  
NATIONAL WEATHER SERVICE COLUMBIA SC  
1200 AM EDT MON OCT 26 2020  
 
NOTE: "FAIR" INDICATES FEW OR NO CLOUDS BELOW 12,000 FEET WITH NO  
SIGNIFICANT WEATHER AND/OR S TO VISIBILITY
.  
 
NOT ALL STATIONS ARE QUALITY CONTROLLED BY THE NATIONAL  
WEATHER SERVICE. USE DATA WITH CAUTION...ESPECIALLY  
DEWPOINT OBSERVATIONS.  
 
SCZ001>056-GAZ040-063>065-077-260500-   
..UPSTATE SOUTH CAROLINA
 
 
 
CITY SKY/WX TMP DP RH WIND PRES REMARKS
 
ANDERSON LGT RAIN 60 58 92 NE9 30.07R  
LIBERTY CLOUDY 59 59 100 E3 30.08R  
SPARTANBURG CLOUDY 55 54 94 NE8 30.09R FOG  
CLEMSON CLOUDY 59 56 89 E12 30.08R  
GREENVILLE LGT RAIN 59 57 93 NE8 30.09S FOG  
GREENWOOD CLOUDY 60 60 100 N5 30.07S FOG  
GREER CLOUDY 56 56 100 NE9 30.09S  
ROCK HILL CLOUDY 55 53 93 NE7 30.10R  
CHESTER CLOUDY 55 55 100 N10 30.10R  
LAURENS CLOUDY 57 57 100 NE8 30.08R FOG  
 
   
..CENTRAL SOUTH CAROLINA
 
 
 
CITY SKY/WX TMP DP RH WIND PRES REMARKS
 
COLUMBIA APT CLOUDY 65 61 87 NE9 30.04S  
COLUMBIA OWENS CLOUDY 65 62 90 E3 30.05S  
MCENTIRE ANGB CLOUDY 64 64 100 NE7 30.04R  
ORANGEBURG CLOUDY 68 66 93 NE6 30.04R  
SUMTER SHAW CLOUDY 63 61 94 NE9 30.05S  
NEWBERRY CLOUDY 61 59 94 NE7 30.10R  
AIKEN CLOUDY 66 65 94 NE9 30.04S  
BARNWELL CLOUDY 70 66 88 E9 30.02S  
MANNING CLOUDY 64 63 94 NE7 30.03R  
CAMDEN CLOUDY 61 59 94 N9 30.08R FOG  
LANCASTER CLOUDY 57 55 94 NE7 30.09R  
WINNSBORO CLOUDY 59 59 100 NE8 30.06F  
 
   
..EASTERN AND COASTAL SOUTH CAROLINA
 
 
 
CITY SKY/WX TMP DP RH WIND PRES REMARKS
 
MYRTLE BEACH CLOUDY 65 65 100 N8 30.03S FOG  
N MYRTLE BCH CLOUDY 65 65 100 N7 30.02R  
CONWAY CLOUDY 63 63 100 N7 30.02F  
MARION CLOUDY 61 61 100 NE6 30.05F  
HARTSVILLE CLOUDY 59 57 94 NE7 30.07R FOG  
FLORENCE CLOUDY 61 60 97 NE8 30.06S FOG  
DARLINGTON CLOUDY 59 59 100 NE9 30.07F FOG  
CHARLESTON APT MOCLDY 71 70 96 E5 30.01R  
MOUNT PLEASANT MOCLDY 70 70 100 CALM 30.01R  
WALTERBORO CLOUDY 70 68 94 E3 30.02S  
BEAUFORT CLOUDY 73 71 93 N6 30.00S  
HILTON HEAD MOCLDY 72 70 94 CALM 30.01R  
 
   
..EASTERN GEORGIA
 
 
 
CITY SKY/WX TMP DP RH WIND PRES REMARKS
 
AUGUSTA BUSH F CLOUDY 72 67 84 E6 30.01R  
AUGUSTA DANIEL CLOUDY 72 66 81 E7 30.02S  
THOMSON CLOUDY 69 69 97 SE6 30.02S  
WASHINGTON CLOUDY 64 63 94 NE6 30.04R  
CLAXTON FAIR 70 68 95 CALM 29.99S  
SYLVANIA MOCLDY 72 69 91 E6 30.01S  
STATESBORO CLEAR 69 67 92 CALM 29.99F  
SAVANNAH MOCLDY 72 70 93 NE5 29.99S  
 
   
..SOUTHERN NORTH CAROLINA
 
 
 
CITY SKY/WX TMP DP RH WIND PRES REMARKS
 
CHARLOTTE CLOUDY 54 52 93 N12 30.11R  
MONROE CLOUDY 54 53 97 N7 30.10R  
WADESBORO CLOUDY 55 54 95 N6 30.10R FOG  
ROCKINGHAM CLOUDY 56 55 97 NE5 30.08S FOG  
RUTHERFORDTON CLOUDY 55 55 100 CALM 30.12S  
ASHEVILLE CLOUDY 58 57 97 S3 30.11R  
 

 
 
 
CLICK HERE TO GO TO PREVIOUS BULLETINS.

The Nexlab SC Page
The Nexlab GA Page Main Text Page